Wind_Speed
71 70 67 65 63 60 59 58 57 55 53 53 52 51 50 50 51 50 51 50 50 51 51 52 53 55 57 59 60 61 63 62 62 60 61 63 66 67 65 67 69 70 71
72 72 72 70 68 64 64 64 64 62 60 58 57 54 53 54 55 55 56 56 55 56 57 58 61 61 63 64 64 65 66 65 64 64 63 64 66 67 67 70 72 73 75
74 76 76 75 73 70 68 69 68 68 66 65 62 61 60 59 60 60 61 61 61 62 63 63 66 65 68 68 68 68 68 68 68 68 68 67 68 70 72 74 77 78 79
76 79 81 81 79 76 75 74 72 73 72 71 69 67 66 65 64 64 65 66 67 68 67 67 68 68 69 70 70 70 70 70 69 70 71 71 71 72 74 78 81 82 84
73 80 83 83 83 82 81 80 78 77 77 77 76 74 73 72 70 69 69 71 71 70 69 68 68 68 69 70 70 71 71 71 71 72 73 74 76 77 78 82 85 85 87
72 77 83 87 86 87 86 85 83 82 83 82 81 81 79 78 77 77 75 73 71 69 69 69 69 68 69 70 70 72 72 72 73 75 75 76 80 80 82 85 87 89 91
72 75 80 84 90 90 92 90 89 88 86 85 85 85 83 83 82 81 79 78 77 75 73 72 71 70 71 71 72 74 72 74 74 77 78 81 82 85 85 88 89 91 92
74 75 79 84 87 91 94 95 95 94 92 91 90 89 88 86 87 87 86 83 80 78 77 77 75 75 74 75 76 76 75 76 78 81 83 85 86 86 87 90 92 94 94
79 81 79 81 87 91 93 95 97 97 98 98 96 95 93 92 92 92 93 91 87 84 82 80 78 77 78 79 80 79 79 79 83 87 86 87 88 88 90 94 96 97 96
86 85 84 87 85 89 94 97 98 100 101 101 100 100 100 97 98 99 98 96 93 91 89 87 86 84 83 84 86 86 84 86 90 90 90 90 91 92 94 97 100 98 98
92 91 92 91 90 91 91 93 98 101 102 104 104 104 104 105 104 104 104 102 100 99 96 94 92 92 92 91 90 90 87 92 91 91 92 92 93 95 97 99 101 101 103
101 98 97 97 97 95 94 95 96 96 101 106 106 106 108 109 108 107 109 108 108 105 102 100 98 98 98 98 96 94 96 97 96 96 96 95 97 98 100 102 104 106 108
112 108 105 104 102 101 100 100 99 100 100 100 102 107 111 112 111 113 113 112 112 110 109 107 105 104 104 103 102 100 101 100 100 102 102 102 103 105 106 108 108 111 111
118 118 116 113 110 108 107 106 105 106 105 103 105 105 104 106 111 116 116 116 116 115 114 112 111 110 109 108 107 107 107 107 107 108 109 110 109 110 111 112 112 113 107
123 124 123 122 121 118 116 114 112 110 110 110 109 108 107 107 109 111 110 109 112 114 115 114 114 115 114 113 112 111 112 112 112 112 113 113 111 111 110 108 105 104 99
126 129 130 130 128 127 126 123 121 118 117 115 113 113 112 112 112 113 113 113 113 112 109 107 109 110 111 112 111 111 110 110 110 110 107 105 105 105 104 102 99 98 98
133 133 132 135 136 135 133 132 131 129 125 123 122 120 118 116 116 117 119 118 115 114 111 111 110 110 109 108 107 106 105 106 105 105 105 103 102 100 99 100 101 102 103
134 135 136 137 137 140 140 139 138 137 135 133 131 129 127 125 123 122 122 122 120 120 118 116 114 114 113 111 109 108 107 105 105 104 104 104 103 104 104 105 106 107 108
126 131 133 134 138 141 143 144 145 144 142 139 139 138 137 135 133 131 129 127 126 125 123 121 120 119 119 117 115 114 113 112 112 111 110 110 109 109 109 110 111 111 112
121 123 125 129 135 138 141 143 145 146 147 147 145 144 144 144 141 140 138 136 135 132 131 128 126 125 124 123 121 119 118 116 116 116 116 114 114 114 113 114 115 116 116
117 118 118 120 124 130 135 137 138 142 146 147 147 148 150 150 148 146 146 145 143 142 140 137 135 132 131 129 128 126 125 123 122 121 122 120 119 119 119 118 120 120 120
110 114 115 115 115 119 124 128 131 133 134 138 144 146 148 149 149 150 152 151 150 149 147 146 143 140 138 136 135 133 131 130 128 128 129 127 126 126 125 126 125 124 124
94 102 108 110 112 113 114 116 120 126 129 130 133 138 143 145 146 147 149 150 151 152 153 153 150 147 145 142 141 140 136 134 134 133 132 132 131 130 129 130 130 130 128
80 86 91 96 101 105 108 108 111 113 116 120 124 128 131 133 136 140 144 145 147 150 152 153 152 149 149 148 148 146 144 140 136 136 135 135 135 134 134 136 134 135 135
69 74 79 83 87 92 95 99 104 107 108 110 112 115 120 123 125 127 130 133 136 137 138 140 143 147 149 149 148 147 146 147 146 144 142 141 140 141 141 139 140 140 139
63 66 69 72 75 79 83 86 90 94 98 100 104 108 111 113 115 116 117 119 121 123 123 124 127 130 133 137 140 140 142 145 144 143 145 144 144 145 145 144 144 145 143
Wind_Direction
221 220 220 219 219 221 223 225 228 228 232 235 237 241 242 243 245 247 249 252 255 257 259 261 264 267 268 269 271 273 275 278 281 284 288 290 291 293 298 300 301 302 304
225 223 224 223 223 223 226 227 230 233 233 237 239 241 243 247 249 251 253 254 257 260 263 266 267 269 270 271 272 273 276 278 280 284 286 290 292 296 299 300 301 302 303
229 228 227 228 227 227 229 230 232 234 237 237 241 242 243 246 250 253 255 258 261 263 266 267 267 269 269 270 271 273 275 278 280 283 285 289 292 295 298 300 300 301 304
230 231 231 231 231 231 232 233 234 236 238 240 241 243 247 248 251 254 256 257 259 262 265 268 269 269 270 271 274 275 276 278 280 283 286 288 289 293 296 298 300 302 303
236 234 234 234 233 235 235 235 236 237 240 241 243 245 248 251 253 255 257 259 261 263 265 268 269 269 270 272 273 274 277 278 279 281 283 286 289 292 295 299 300 302 302
242 239 238 237 238 237 238 239 238 239 241 243 245 246 249 253 255 257 258 259 262 265 267 268 269 270 271 271 272 273 274 276 277 281 283 287 289 293 295 297 298 299 302
246 245 241 241 240 240 239 240 242 242 243 245 246 248 250 252 256 258 260 262 263 264 266 267 268 269 269 271 271 272 275 277 280 282 285 286 289 291 294 295 298 299 301
247 247 246 245 244 243 243 243 244 245 245 245 247 250 252 254 256 257 259 260 262 265 267 268 268 269 270 271 271 273 275 277 279 281 283 285 288 291 293 295 297 298 302
246 246 247 247 247 246 246 246 246 247 247 247 248 249 251 253 255 258 260 260 261 263 264 266 267 267 268 269 271 273 274 276 278 279 281 284 287 290 292 294 295 298 302
246 246 246 247 247 248 247 247 248 248 249 250 251 251 251 253 256 257 259 260 261 262 263 265 267 267 268 268 269 270 272 274 275 278 281 284 287 289 291 292 295 299 301
247 246 247 247 247 247 249 249 249 249 250 251 252 253 254 254 255 256 258 260 261 262 262 264 265 267 268 268 270 273 275 274 277 279 281 283 286 288 290 292 295 297 298
247 246 246 247 247 248 248 249 250 251 252 251 252 253 255 256 257 258 259 260 261 262 263 264 265 266 267 270 271 273 275 276 278 280 282 284 285 287 288 291 293 295 297
249 247 246 246 247 247 247 248 249 249 250 252 253 253 254 255 256 258 259 261 262 263 264 265 267 268 270 271 273 273 275 277 279 280 281 283 284 286 288 289 291 293 296
248 249 249 248 247 246 247 247 248 249 250 250 251 253 254 256 256 258 258 259 260 262 263 265 266 268 269 270 271 272 274 276 277 279 281 283 284 285 287 288 291 292 295
246 247 248 248 249 249 248 247 248 248 249 250 250 251 252 254 256 257 258 259 259 260 261 263 264 265 266 267 268 269 271 273 275 277 279 281 282 284 285 287 290 292 293
247 246 247 247 247 249 249 249 249 249 250 250 250 251 252 252 254 256 258 258 259 260 261 262 263 264 265 266 267 269 271 273 275 276 278 280 281 283 285 287 288 290 291
248 247 247 247 246 246 247 248 250 250 249 250 251 250 251 251 252 253 256 257 258 259 261 262 263 264 265 266 267 269 270 272 273 275 276 278 280 281 283 284 286 287 289
248 248 248 248 249 247 247 247 248 249 250 251 250 252 252 252 252 253 254 255 257 257 258 259 261 262 264 265 266 267 269 270 272 273 274 275 277 279 281 283 285 287 288
249 248 248 248 248 248 249 248 247 248 249 250 252 253 252 253 253 253 255 256 257 258 258 259 260 261 262 263 264 265 267 269 270 272 273 275 276 278 281 282 284 286 287
252 250 249 249 250 250 250 250 250 249 250 250 250 251 253 254 254 255 256 256 257 258 259 260 261 262 263 264 265 265 266 268 270 271 273 275 276 278 280 281 283 285 287
256 257 255 251 250 251 252 253 253 252 251 251 251 252 252 253 255 256 257 258 258 258 259 259 260 261 262 263 265 266 267 268 270 271 273 274 276 277 279 281 282 283 285
255 257 258 257 256 254 252 253 253 253 253 253 253 253 254 254 254 255 256 257 258 259 259 260 260 261 261 263 264 265 266 268 269 271 272 274 276 277 278 279 280 281 282
255 255 255 257 258 258 257 255 255 255 255 255 255 255 255 256 257 257 257 257 258 259 260 260 260 261 261 261 262 263 264 265 267 270 272 273 274 275 276 277 278 279 281
256 256 256 256 257 257 257 258 258 257 256 256 256 257 257 258 258 257 258 258 259 259 259 260 262 262 262 262 263 263 264 265 266 267 268 270 271 273 274 275 278 278 280
260 259 259 258 258 258 258 259 259 258 258 259 258 257 257 258 259 259 259 260 260 261 260 260 261 263 264 264 264 264 265 266 267 268 269 269 270 271 273 274 275 277 279
262 261 261 260 260 260 260 260 260 260 259 260 260 260 259 258 259 259 260 260 261 261 262 263 263 263 262 263 264 265 266 266 266 267 268 268 270 271 271 273 274 275 277
Height
10761 10764 10768 10771 10776 10780 10783 10785 10788 10791 10795 10798 10802 10805 10807 10808 10810 10811 10812 10813 10814 10815 10816 10816 10815 10815 10814 10812 10812 10809 10808 10807 10804 10803 10799 10795 10789 10785 10782 10776 10770 10763 10757
10748 10752 10755 10758 10763 10767 10769 10772 10776 10779 10784 10786 10788 10792 10794 10796 10798 10800 10799 10800 10802 10802 10803 10804 10801 10801 10800 10799 10798 10796 10795 10794 10792 10789 10787 10783 10778 10773 10769 10763 10757 10750 10743
10733 10737 10741 10744 10748 10753 10756 10759 10763 10766 10769 10772 10775 10777 10779 10781 10784 10786 10787 10788 10789 10789 10788 10789 10786 10787 10785 10783 10783 10782 10781 10779 10777 10775 10772 10772 10767 10760 10755 10749 10742 10736 10729
10715 10719 10723 10727 10732 10736 10739 10743 10747 10750 10753 10757 10760 10762 10764 10766 10769 10769 10770 10771 10771 10772 10773 10773 10772 10772 10770 10769 10769 10767 10766 10765 10764 10762 10757 10754 10751 10747 10742 10734 10727 10721 10715
10698 10702 10707 10711 10715 10719 10723 10727 10731 10734 10736 10739 10743 10746 10747 10749 10751 10752 10753 10753 10755 10756 10758 10758 10757 10757 10755 10755 10754 10751 10751 10750 10749 10746 10742 10738 10734 10731 10728 10720 10711 10706 10698
10679 10683 10688 10692 10697 10701 10705 10708 10713 10716 10719 10723 10726 10729 10731 10733 10732 10731 10733 10736 10737 10740 10742 10741 10741 10741 10739 10738 10737 10734 10733 10732 10732 10729 10727 10724 10717 10716 10711 10703 10694 10687 10684
10660 10664 10668 10671 10676 10680 10684 10688 10692 10697 10700 10704 10707 10710 10713 10714 10713 10713 10713 10716 10720 10723 10725 10725 10724 10725 10722 10721 10719 10717 10719 10717 10716 10712 10712 10707 10704 10697 10697 10685 10677 10670 10666
10639 10643 10647 10651 10655 10659 10663 10667 10671 10676 10680 10683 10687 10690 10693 10695 10693 10692 10693 10697 10703 10705 10706 10706 10707 10706 10706 10701 10699 10700 10703 10701 10699 10693 10693 10690 10686 10682 10676 10666 10659 10652 10650
10616 10620 10624 10628 10632 10636 10641 10644 10649 10654 10658 10661 10665 10668 10672 10673 10672 10671 10671 10676 10683 10686 10686 10688 10688 10689 10687 10684 10681 10684 10684 10687 10680 10673 10676 10673 10669 10664 10657 10647 10639 10637 10634
10592 10596 10599 10603 10607 10611 10616 10620 10624 10629 10634 10637 10641 10645 10648 10651 10650 10650 10648 10652 10661 10663 10664 10668 10667 10669 10665 10664 10661 10662 10668 10667 10657 10657 10657 10654 10650 10645 10637 10628 10621 10621 10617
10565 10570 10573 10576 10581 10588 10591 10594 10599 10603 10609 10612 10617 10619 10622 10624 10625 10626 10627 10630 10634 10636 10642 10645 10646 10642 10641 10643 10643 10642 10648 10636 10640 10638 10637 10636 10632 10624 10617 10609 10605 10601 10595
10534 10541 10545 10548 10554 10561 10566 10569 10572 10576 10581 10584 10589 10593 10595 10596 10600 10601 10601 10603 10607 10613 10619 10621 10622 10620 10619 10618 10623 10623 10619 10614 10617 10616 10614 10614 10610 10605 10599 10593 10587 10582 10575
10498 10505 10513 10519 10524 10529 10535 10540 10542 10545 10551 10554 10557 10563 10566 10566 10570 10571 10574 10577 10579 10585 10591 10593 10595 10596 10596 10598 10599 10599 10594 10593 10591 10590 10589 10589 10586 10582 10578 10570 10568 10562 10555
10465 10472 10479 10486 10492 10497 10501 10506 10511 10515 10519 10525 10528 10533 10537 10538 10539 10536 10544 10548 10551 10555 10560 10567 10570 10572 10573 10572 10572 10572 10570 10569 10568 10567 10564 10561 10561 10558 10552 10547 10544 10538 10533
10428 10436 10442 10448 10455 10463 10468 10472 10478 10483 10485 10491 10497 10502 10507 10512 10509 10506 10511 10516 10519 10523 10529 10537 10540 10541 10542 10544 10545 10546 10543 10542 10544 10541 10539 10538 10536 10531 10528 10522 10521 10515 10512
10388 10397 10403 10410 10416 10423 10429 10436 10442 10450 10454 10461 10465 10469 10475 10481 10480 10477 10480 10485 10489 10492 10501 10508 10507 10508 10512 10513 10516 10518 10518 10517 10515 10512 10514 10513 10509 10506 10504 10500 10496 10492 10488
10341 10349 10357 10366 10373 10381 10389 10396 10404 10408 10417 10423 10426 10431 10438 10444 10445 10448 10445 10449 10458 10463 10471 10474 10477 10477 10480 10484 10488 10490 10491 10490 10489 10490 10489 10487 10485 10482 10480 10477 10474 10469 10463
10294 10302 10314 10325 10331 10340 10347 10356 10364 10373 10377 10384 10390 10393 10399 10405 10410 10412 10414 10417 10427 10428 10438 10443 10446 10447 10450 10454 10457 10460 10461 10463 10463 10463 10464 10463 10462 10458 10457 10453 10449 10445 10439
10253 10262 10271 10281 10288 10295 10304 10313 10322 10330 10340 10351 10351 10354 10360 10364 10371 10379 10380 10386 10391 10397 10402 10410 10413 10416 10419 10423 10429 10431 10434 10435 10434 10435 10436 10436 10435 10433 10432 10428 10423 10419 10416
10212 10221 10231 10241 10248 10253 10260 10269 10278 10288 10299 10307 10316 10321 10316 10320 10336 10340 10345 10350 10356 10363 10366 10373 10380 10384 10387 10391 10395 10400 10403 10405 10405 10404 10405 10408 10407 10406 10405 10401 10396 10392 10390
10179 10183 10194 10205 10212 10215 10221 10229 10237 10244 10253 10263 10274 10280 10283 10285 10291 10299 10306 10311 10317 10324 10330 10335 10342 10348 10353 10358 10361 10366 10368 10371 10374 10374 10373 10375 10377 10376 10376 10374 10369 10366 10364
10151 10152 10156 10163 10172 10181 10185 10188 10194 10204 10213 10222 10230 10235 10238 10242 10254 10260 10262 10269 10274 10282 10289 10293 10302 10311 10318 10322 10325 10330 10335 10337 10341 10341 10338 10342 10345 10346 10347 10343 10340 10338 10337
10123 10123 10125 10129 10134 10140 10147 10153 10160 10167 10173 10181 10189 10195 10198 10203 10209 10218 10225 10229 10232 10239 10244 10249 10259 10269 10276 10283 10287 10291 10301 10306 10308 10310 10310 10310 10311 10313 10313 10310 10309 10308 10306
10096 10096 10096 10099 10102 10107 10111 10115 10122 10130 10137 10141 10148 10154 10161 10165 10168 10171 10176 10184 10193 10198 10201 10204 10211 10224 10234 10244 10247 10252 10260 10270 10274 10274 10276 10277 10278 10280 10277 10276 10278 10275 10275
10072 10073 10074 10075 10077 10078 10081 10084 10088 10092 10098 10104 10110 10116 10121 10125 10127 10131 10137 10143 10146 10152 10159 10168 10177 10181 10186 10195 10203 10211 10222 10227 10232 10236 10239 10241 10242 10242 10244 10244 10244 10244 10243
10050 10049 10050 10051 10052 10053 10054 10057 10060 10062 10064 10068 10073 10078 10082 10086 10089 10095 10099 10102 10107 10110 10121 10127 10132 10140 10147 10152 10159 10169 10176 10179 10186 10194 10195 10199 10204 10204 10207 10209 10212 10209 10213